[[{"header":{"parameterUnit":"m.s-1","parameterCategory":1,"la1":30.2991,"la2":30.254,"lo1":-89.0895,"lo2":-89.0444,"dy":0.0017,"dx":0.0017,"nx":28,"ny":28,"refTime":"2026-02-17T09:00:00:Z","depth":0,"parameterNumber":2,"parameterNumberName":"U-component_of_WINDS"},"data":[0,0,0,0,0,0,0,0,0,0,0,0,0,0,0,0,0,0,0,0,0,0,0,0,0,0,0,0,0,0,0,0,0,0,0,0,0,0,0,0,0,0,0,0,0,0,0,0,0,0,0,0,0,0,0,0,0,0,-2.372,-2.372,0,-2.3758,-2.3758,-2.3759,-2.3764,-2.3764,-2.3763,-2.3763,-2.3802,-2.3803,-2.3804,0,0,0,0,0,0,0,0,0,0,0,0,0,-2.365,-2.3652,-2.3719,-2.372,-2.372,-2.3758,-2.3758,-2.3759,-2.3764,-2.3763,-2.3763,-2.3763,-2.3801,-2.3803,-2.3805,0,0,0,0,0,0,0,0,0,0,0,0,0,-2.3684,-2.3652,-2.3719,-2.3727,-2.3729,-2.3758,-2.3758,-2.3759,-2.3764,-2.3763,-2.3763,-2.3762,-2.3801,-2.3803,-2.3805,-2.3829,0,0,-2.3811,-2.3812,0,0,0,0,0,0,0,0,-2.3682,-2.3686,-2.3726,-2.3727,-2.3728,-2.3756,-2.3748,-2.3782,-2.3764,-2.3751,-2.3763,-2.3762,-2.3787,-2.379,-2.3798,-2.383,-2.3832,-2.3811,-2.3813,-2.3813,-2.3814,0,0,0,0,0,0,0,-2.368,-2.3685,-2.3735,-2.3726,-2.3728,-2.3729,-2.3733,-2.3755,-2.3771,-2.3752,-2.3752,-2.3757,-2.3787,-2.3796,-2.3799,-2.3833,-2.3811,-2.3813,-2.3814,-2.3815,-2.3886,-2.3887,0,0,0,0,0,0,-2.3676,-2.3683,-2.3733,-2.3736,-2.3703,-2.3731,-2.3736,-2.3747,-2.3771,-2.3774,-2.3757,-2.3757,-2.3793,-2.3797,-2.3801,-2.383,-2.3813,-2.3815,-2.3817,-2.3885,-2.3886,-2.3887,0,0,0,0,0,0,-2.3674,-2.368,-2.3732,-2.3709,-2.3716,-2.3733,-2.3746,-2.3748,-2.3757,-2.3775,-2.3778,-2.3763,-2.3793,-2.3798,-2.3822,-2.3831,-2.3816,-2.3818,-2.3885,-2.3886,-2.3887,-2.3888,0,0,0,0,0,0,-2.3672,-2.368,-2.3689,-2.371,-2.3717,-2.3752,-2.3747,-2.375,-2.3761,-2.3761,-2.3782,-2.3785,-2.3793,-2.3818,-2.3824,-2.3834,-2.382,-2.3884,-2.3885,-2.3886,-2.3887,-2.3889,-2.389,0,0,0,0,0,-2.367,-2.3688,-2.3689,-2.3695,-2.3729,-2.3753,-2.3757,-2.3766,-2.3762,-2.3771,-2.3783,-2.3784,-2.383,-2.3821,-2.3827,-2.3838,-2.3883,-2.3885,-2.3886,-2.3886,-2.3889,-2.389,0,0,0,0,0,0,-2.3667,-2.369,-2.3692,-2.3718,-2.3733,-2.3753,-2.3765,-2.3768,-2.3785,-2.3784,-2.3795,-2.38,-2.3823,-2.3833,-2.3823,-2.3862,-2.3856,-2.3859,-2.3854,-2.3856,-2.3858,-2.3855,-2.3821,0,0,0,0,0,-2.367,-2.3687,-2.3706,-2.3727,-2.3734,-2.3749,-2.3759,-2.3765,-2.3781,-2.3788,-2.3801,-2.3817,-2.3835,-2.3846,-2.3864,-2.3889,-2.3894,-2.39,-2.3901,-2.3903,-2.3904,-2.3918,-2.3921,-2.3892,-2.3892,-2.3892,0,0,-2.3675,-2.369,-2.37,-2.3726,-2.3739,-2.3757,-2.3754,-2.3773,-2.3786,-2.3791,-2.3814,-2.3824,-2.3843,-2.3867,-2.3879,-2.3876,-2.3914,-2.3904,-2.3905,-2.3906,-2.392,-2.3923,-2.3925,-2.3893,-2.3892,-2.3892,0,0,-2.3693,-2.3706,-2.3724,-2.3737,-2.3756,-2.3766,-2.377,-2.379,-2.3797,-2.3821,-2.3825,-2.3841,-2.3872,-2.3885,-2.3895,-2.3919,-2.3921,-2.3924,-2.3932,-2.3946,-2.3948,-2.395,-2.3958,-2.3961,-2.3926,-2.3926,-2.3926,0,-2.3696,-2.3723,-2.3733,-2.3751,-2.3763,-2.3769,-2.3787,-2.3799,-2.3823,-2.3831,-2.3828,-2.3867,-2.388,-2.3908,-2.3914,-2.3922,-2.3927,-2.3921,-2.3947,-2.3949,-2.3951,-2.3959,-2.3962,-2.3927,-2.3927,-2.3927,-2.3927,0,-2.3726,-2.3744,-2.3757,-2.378,-2.3793,-2.3811,-2.3824,-2.3837,-2.3842,-2.3851,-2.3875,-2.3891,-2.3912,-2.3919,-2.3924,-2.3948,-2.3946,-2.3945,-2.3939,-2.3954,-2.3961,-2.3965,-2.3927,-2.3927,-2.3927,-2.3927,0,0,-2.3742,-2.3771,-2.3775,-2.3786,-2.3808,-2.3823,-2.3842,-2.3862,-2.3872,-2.3889,-2.3905,-2.3931,-2.3931,-2.3943,-2.3949,-2.3961,-2.3979,-2.3959,-2.396,-2.3961,-2.4005,-2.4005,-2.4008,-2.398,-2.3981,-2.3982,-2.4003,0,-2.3762,-2.3795,-2.3805,-2.3834,-2.3851,-2.3857,-2.3873,-2.3889,-2.3899,-2.3915,-2.3926,-2.3944,-2.3942,-2.395,-2.3962,-2.3974,-2.3987,-2.3973,-2.3995,-2.3996,-2.3989,-2.4012,-2.4012,-2.4031,-2.4006,-2.4007,-2.4007,0,-2.3789,-2.3807,-2.3836,-2.3856,-2.3864,-2.3878,-2.3898,-2.3913,-2.3931,-2.3938,-2.3951,-2.3957,-2.3977,-2.3971,-2.3999,-2.3989,-2.3999,-2.4006,-2.4007,-2.4009,-2.4001,-2.4013,-2.4038,-2.404,-2.4012,-2.4011,-2.4011,0,-2.3797,-2.3828,-2.385,-2.3859,-2.3883,-2.3893,-2.3903,-2.3921,-2.3932,-2.395,-2.3958,-2.3977,-2.3988,-2.4003,-2.4014,-2.4009,-2.4041,-2.4036,-2.4046,-2.4046,-2.4052,-2.4051,-2.4077,-2.406,-2.406,-2.406,-2.406,0,-2.3818,-2.3836,-2.3854,-2.3867,-2.3887,-2.3899,-2.3918,-2.3929,-2.3945,-2.396,-2.3967,-2.3982,-2.3996,-2.4013,-2.4022,-2.4043,-2.4048,-2.4053,-2.4055,-2.4052,-2.4051,-2.4058,-2.4057,-2.406,-2.406,-2.406,-2.406,0,-2.383,-2.3843,-2.3867,-2.3888,-2.3893,-2.3907,-2.3925,-2.3938,-2.3949,-2.3969,-2.3974,-2.399,-2.401,-2.4023,-2.4048,-2.4055,-2.4078,-2.408,-2.4071,-2.4072,-2.4082,-2.4081,-2.4113,-2.4117,-2.4097,-2.4098,-2.4098,0,-2.3842,-2.3856,-2.3878,-2.3889,-2.3899,-2.3917,-2.3929,-2.3941,-2.3953,-2.3975,-2.3986,-2.4006,-2.4023,-2.4054,-2.4068,-2.4088,-2.409,-2.41,-2.4093,-2.4089,-2.4089,-2.4088,-2.4089,-2.4101,-2.4101,-2.4101,-2.4101,0,-2.3861,-2.3867,-2.3884,-2.3903,-2.3917,-2.3933,-2.3949,-2.3958,-2.3973,-2.3986,-2.4006,-2.4019,-2.4045,-2.4065,-2.4086,-2.4097,-2.4102,-2.4103,-2.4107,-2.4103,-2.4098,-2.41,-2.4074,-2.4102,-2.4102,-2.4102,-2.4102,-2.4102,-2.3873,-2.3886,-2.3903,-2.3922,-2.3935,-2.395,-2.3963,-2.3976,-2.3993,-2.4014,-2.4021,-2.4042,-2.406,-2.4088,-2.41,-2.4117,-2.4116,-2.4121,-2.4122,-2.4123,-2.4122,-2.4096,-2.4121,-2.4121,-2.4121,-2.4121,-2.4121,0,-2.3892,-2.3904,-2.3921,-2.3943,-2.3958,-2.3961,-2.3979,-2.3991,-2.4009,-2.4026,-2.4042,-2.4065,-2.4085,-2.4101,-2.4121,-2.4132,-2.4134,-2.4137,-2.4136,-2.4138,-2.4122,-2.4117,-2.4134,-2.4134,-2.4134,-2.4134,-2.4134,-2.4134,-2.3904,-2.3925,-2.3933,-2.3961,-2.3973,-2.3993,-2.4003,-2.4017,-2.403,-2.4055,-2.4072,-2.4082,-2.4098,-2.412,-2.4138,-2.4143,-2.4149,-2.4151,-2.4156,-2.4141,-2.4139,-2.4138,-2.4133,-2.4153,-2.4153,-2.417,-2.417,-2.417]},{"header":{"parameterUnit":"m.s-1","parameterCategory":1,"la1":30.2991,"la2":30.254,"lo1":-89.0895,"lo2":-89.0444,"dy":0.0017,"dx":0.0017,"nx":28,"ny":28,"refTime":"2026-02-17T09:00:00:Z","depth":0,"parameterNumber":3,"parameterNumberName":"V-component_of_WINDS"},"data":[0,0,0,0,0,0,0,0,0,0,0,0,0,0,0,0,0,0,0,0,0,0,0,0,0,0,0,0,0,0,0,0,0,0,0,0,0,0,0,0,0,0,0,0,0,0,0,0,0,0,0,0,0,0,0,0,0,0,4.5328,4.5329,0,4.5484,4.5486,4.5488,4.5534,4.5533,4.5532,4.5531,4.569,4.5695,4.57,0,0,0,0,0,0,0,0,0,0,0,0,0,4.5069,4.5074,4.5327,4.5329,4.5331,4.5484,4.5486,4.5488,4.5534,4.5533,4.5532,4.5531,4.5689,4.5695,4.5701,0,0,0,0,0,0,0,0,0,0,0,0,0,4.5199,4.5075,4.5327,4.5373,4.5378,4.5483,4.5486,4.5489,4.5534,4.5533,4.5532,4.5531,4.5687,4.5694,4.5701,4.5772,0,0,4.5724,4.5728,0,0,0,0,0,0,0,0,4.5192,4.5209,4.5364,4.537,4.5376,4.5488,4.5453,4.5584,4.5534,4.5475,4.5531,4.553,4.5624,4.5637,4.5669,4.578,4.5786,4.5725,4.573,4.5733,4.5735,0,0,0,0,0,0,0,4.5183,4.5202,4.5389,4.5366,4.5374,4.5386,4.5403,4.5478,4.5554,4.548,4.5484,4.5502,4.5627,4.5661,4.5673,4.5789,4.5725,4.5731,4.5736,4.5739,4.5969,4.5971,0,0,0,0,0,0,4.5166,4.5194,4.5384,4.5394,4.5279,4.5391,4.541,4.5453,4.5554,4.5568,4.5503,4.5503,4.5649,4.5664,4.5678,4.5771,4.5733,4.574,4.5744,4.5968,4.597,4.5971,0,0,0,0,0,0,4.516,4.5182,4.5378,4.5295,4.5321,4.5397,4.5445,4.5457,4.5491,4.5571,4.5585,4.5523,4.5649,4.5668,4.575,4.5777,4.5743,4.575,4.5966,4.5968,4.597,4.5953,0,0,0,0,0,0,4.5153,4.518,4.5207,4.5296,4.5325,4.5446,4.5447,4.5461,4.5504,4.5507,4.5594,4.5607,4.5649,4.5738,4.5757,4.5786,4.5756,4.5964,4.5967,4.597,4.5952,4.5955,4.5958,0,0,0,0,0,4.5143,4.5195,4.5209,4.5231,4.5361,4.5448,4.5465,4.5512,4.5506,4.5535,4.5586,4.5605,4.577,4.5746,4.5768,4.58,4.5962,4.5966,4.5969,4.5951,4.5954,4.5958,0,0,0,0,0,0,4.5107,4.5208,4.5223,4.5306,4.5368,4.5455,4.5493,4.5514,4.5579,4.5579,4.5634,4.5654,4.5732,4.5774,4.5745,4.5875,4.5867,4.5875,4.5845,4.5849,4.5852,4.5841,4.5762,0,0,0,0,0,4.5109,4.5171,4.5255,4.532,4.535,4.5416,4.5455,4.5487,4.5553,4.558,4.5637,4.5701,4.5768,4.5811,4.5876,4.5958,4.5979,4.5991,4.5993,4.5995,4.6002,4.6052,4.6059,4.5983,4.5983,4.5983,0,0,4.5113,4.5176,4.5211,4.5314,4.5366,4.543,4.5438,4.5504,4.5552,4.559,4.5671,4.5715,4.5791,4.5873,4.5913,4.5911,4.6028,4.6,4.6001,4.6007,4.6056,4.6063,4.607,4.5986,4.5985,4.5985,0,0,4.5154,4.5206,4.5268,4.532,4.5399,4.5443,4.5457,4.5542,4.5574,4.5656,4.5687,4.5745,4.5857,4.5911,4.5953,4.6016,4.6036,4.6036,4.6051,4.6098,4.6104,4.611,4.6135,4.6143,4.6042,4.6042,4.6042,0,4.5149,4.5246,4.5296,4.5362,4.5407,4.5445,4.5508,4.5556,4.5653,4.5683,4.568,4.5825,4.5878,4.5975,4.5991,4.6022,4.6042,4.6027,4.6099,4.6106,4.6112,4.6136,4.6145,4.6041,4.6041,4.6042,4.6042,0,4.5238,4.5305,4.5345,4.5438,4.5488,4.5552,4.5612,4.5656,4.5684,4.5728,4.5813,4.5878,4.5959,4.5984,4.601,4.6086,4.6083,4.6088,4.6082,4.6118,4.6142,4.6151,4.6041,4.6041,4.6041,4.6041,0,0,4.5261,4.5382,4.5396,4.544,4.5531,4.5584,4.565,4.573,4.5769,4.5834,4.5892,4.5988,4.5995,4.6042,4.6075,4.6117,4.6166,4.6118,4.6121,4.6127,4.6257,4.6253,4.6263,4.618,4.6182,4.6183,4.6251,0,4.5315,4.5436,4.5483,4.5582,4.5646,4.5683,4.5741,4.5804,4.5847,4.5908,4.5956,4.6024,4.6027,4.6056,4.6099,4.6151,4.6193,4.6147,4.6236,4.6239,4.6218,4.6276,4.6272,4.6333,4.6261,4.6262,4.6263,0,4.5394,4.5462,4.5567,4.5653,4.5681,4.5733,4.5812,4.5868,4.5941,4.597,4.6024,4.6055,4.6127,4.6115,4.6216,4.6183,4.6223,4.6254,4.6258,4.627,4.6254,4.6291,4.6353,4.6363,4.6278,4.6277,4.6276,0,4.5404,4.5521,4.56,4.5636,4.5737,4.5773,4.5816,4.5887,4.5933,4.6002,4.6033,4.6108,4.615,4.6208,4.6259,4.6245,4.6357,4.6348,4.6384,4.6383,4.6408,4.6406,4.6479,4.6429,4.6429,4.6428,4.6428,0,4.5461,4.5524,4.5606,4.5655,4.5727,4.5782,4.5852,4.5899,4.5962,4.6021,4.6057,4.6112,4.6175,4.6238,4.6279,4.6358,4.6376,4.6403,4.6413,4.6401,4.6398,4.6429,4.6427,4.6431,4.643,4.643,4.643,0,4.5484,4.5541,4.563,4.5719,4.5743,4.5793,4.587,4.5919,4.5964,4.6039,4.6059,4.6131,4.6208,4.6264,4.6362,4.639,4.6476,4.6485,4.6452,4.6457,4.6492,4.6489,4.659,4.6607,4.6542,4.6543,4.6543,0,4.5518,4.5568,4.5663,4.5706,4.575,4.5817,4.5865,4.592,4.5968,4.6056,4.6095,4.6174,4.6241,4.6362,4.6423,4.6499,4.6512,4.6542,4.6524,4.6511,4.6516,4.6513,4.652,4.6545,4.6545,4.6546,4.6546,0,4.5573,4.56,4.5667,4.5745,4.5801,4.5865,4.5929,4.5962,4.6029,4.6081,4.6161,4.6212,4.6314,4.6393,4.6476,4.6521,4.6546,4.6551,4.6564,4.6554,4.6533,4.6548,4.6461,4.6549,4.6549,4.6549,4.6548,4.6548,4.5605,4.5653,4.5728,4.5802,4.5856,4.5916,4.5968,4.6021,4.6088,4.6176,4.6204,4.6287,4.636,4.6474,4.652,4.6586,4.6586,4.6604,4.6609,4.6613,4.6614,4.6521,4.6601,4.6601,4.6601,4.6601,4.6601,0,4.5665,4.5715,4.5783,4.5873,4.5932,4.5949,4.6022,4.6071,4.6143,4.6209,4.6275,4.6367,4.6444,4.6512,4.6592,4.6632,4.6646,4.6652,4.6651,4.6662,4.6608,4.659,4.664,4.664,4.664,4.664,4.664,4.664,4.5703,4.5785,4.582,4.593,4.598,4.6062,4.6103,4.6159,4.6212,4.6314,4.6379,4.6422,4.649,4.6576,4.6648,4.6666,4.6695,4.6699,4.672,4.6669,4.6665,4.666,4.6644,4.6704,4.6704,4.6768,4.6769,4.6769]}]]